COSMOS 374 DEB

Satellite information

Favourite Embed

Satellite Type and Status

DEBRISIN ORBIT

Key statistics

Satellite COSMOS 374 DEB at a glance.

Uptime

20146

Days in orbit

Revolutions

≈ 13.5

Per day

Orbit

LEO

Low Earth Orbit

Inclination

62.9

Latest

Satellite identification and parameters

Extended collection of information and parameters for COSMOS 374 DEB.

Object identification

Identified? True

Debris? True

Object name: COSMOS 374 DEB

International designator: 1970-089W

Object number (NORAD): 5020

Object ID (CCSDS): 5020

Country: COMMONWEALTH OF INDEPENDENT STATES (CIS)

Current information (Y/N): Y

RCS size: SMALL

Orbital parameters

Period: 106.476 minutes

Inclination: 62.9256 deg

SMA: 7441.525 km

Apoapsis: 1596.811 km

Periapsis: 529.97 km

RAAN: 60.7599 deg

Eccentricy: 0.07168158

Argument of periapsis: 152.6392 deg

Mean anomaly: 211.4376 deg

Mean motion: 13.52414523 rev/day

Mean motion (dot): 0.00001503 rev/day2

B* drag term: 0.00045789865 1/REarth

Two-line elements (TLE)

Creation date: Dec. 18, 2025, 8:02 p.m.

Reference frame: TEME

Reference center: EARTH

Epoch: Dec. 18, 2025, 1:51 p.m. UTC

TLE line 0: 0 COSMOS 374 DEB

TLE line 1: 1 05020U 70089W 25352.57718444 .00001503 00000-0 45790-3 0 9995

TLE line 2: 2 05020 62.9256 60.7599 0716816 152.6392 211.4376 13.52414523654304

Live tracking on map

Real-time ground track for satellite COSMOS 374 DEB.

In-orbit conjunctions

A list of the most updated potential collisions computed for object COSMOS 374 DEB.

Target Orbit TCA Probability of collision Miss distance Type
COSMOS 831 LEO 2025-01-11 11:01:13 0.0002871067 134.0 (m) PAYLOAD

Associated space launch

The I2P satellites were the first soviet coorbital ASAT system.

COSMOS 374 DEB was lifted into orbit during the mission ‘Tsiklon-2 | I2P 4’, on board a Tsiklon-2 space rocket.

The launch took place on Oct. 23, 1970, 4:42 a.m. from 90/20.

For more information about the launch, click the button.

Launch to space Tsiklon-2 | I2P 4
Tsiklon-2 | I2P 4

Agency: N/A

Status: Launch Successful

Launch date: Oct. 23, 1970, 4:42 a.m. UTC

Rocket: Tsiklon-2

Launch pad: 90/20

Location: Baikonur Cosmodrome, Republic of Kazakhstan

...

Latest news about this satellite

There are no fresh news available about this satellite. Check back as we update our databases every day.


Newsletter sign-up

Weekly statistics, charts and insights to help you stay on top of the space industry.